Tracking 29924 objects as of 4-Dec-2024
HD Live streaming from Space Station
objects crossing your sky now

COSMOS 1862

Track COSMOS 1862 now!
10-day predictions
COSMOS 1862 is classified as:


NORAD ID: 18152
Int'l Code: 1987-055A
Perigee: 503.5 km
Apogee: 516.8 km
Inclination: 82.5 °
Period: 94.7 minutes
Semi major axis: 6881 km
RCS: 8.6433 m2 (large)
Launch date: July 1, 1987
Source: Commonwealth of Independent States (former USSR) (CIS)
Launch site: PLESETSK MISSILE AND SPACE COMPLEX (PKMTR)
Your satellite tracking list
Your tracking list is empty




NASA's NSSDC Master Catalog

Two Line Element Set (TLE):
1 18152U 87055A   24338.58159676  .00014985  00000-0  67443-3 0  9993
2 18152  82.4877 150.9763 0009717 194.5924 165.5032 15.20937570 19500
Source of the keplerian elements: AFSPC